�������l�o���
Date,Time,MP-1(��Sv/h),MP-2(��Sv/h),MP-3(��Sv/h),MP-4(��Sv/h),MP-5(��Sv/h),MP-6(��Sv/h),MP-7(��Sv/h),MP-8(��Sv/h),����,����(m/s),���J
2021/08/11,00:00,0.603,0.896,0.575,1.086,0.769,0.366,0.632,0.590,��,6.3,��
2021/08/11,00:10,0.603,0.894,0.575,1.085,0.768,0.365,0.631,0.590,��,5.5,��
2021/08/11,00:20,0.603,0.898,0.574,1.087,0.768,0.366,0.633,0.591,��,4.0,��
2021/08/11,00:30,0.604,0.894,0.573,1.087,0.769,0.367,0.632,0.592,��,3.3,��
2021/08/11,00:40,0.603,0.893,0.575,1.085,0.768,0.366,0.632,0.591,�k��,1.5,��
2021/08/11,00:50,0.603,0.896,0.574,1.086,0.768,0.365,0.633,0.590,�k��,1.4,��
2021/08/11,01:00,0.603,0.895,0.574,1.088,0.769,0.365,0.631,0.591,��,1.2,��
2021/08/11,01:10,0.602,0.894,0.574,1.085,0.767,0.366,0.632,0.591,���쐼,0.9,��
2021/08/11,01:20,0.601,0.895,0.575,1.087,0.768,0.366,0.631,0.591,�k��,0.9,��
2021/08/11,01:30,0.605,0.896,0.574,1.086,0.766,0.366,0.631,0.590,��,0.6,��
2021/08/11,01:40,0.602,0.895,0.574,1.087,0.767,0.366,0.633,0.591,��,1.4,��
2021/08/11,01:50,0.601,0.895,0.575,1.089,0.768,0.366,0.632,0.590,���k��,4.4,��
2021/08/11,02:00,0.605,0.895,0.574,1.086,0.769,0.366,0.634,0.591,���k��,6.1,��
2021/08/11,02:10,0.603,0.896,0.576,1.089,0.768,0.365,0.631,0.591,���k��,4.8,��
2021/08/11,02:20,0.600,0.894,0.575,1.087,0.767,0.365,0.631,0.590,���k��,5.6,��
2021/08/11,02:30,0.604,0.895,0.575,1.088,0.769,0.365,0.632,0.591,���k��,3.8,��
2021/08/11,02:40,0.603,0.895,0.574,1.087,0.770,0.364,0.633,0.592,�k��,3.3,��
2021/08/11,02:50,0.601,0.895,0.574,1.087,0.771,0.365,0.632,0.590,�k��,2.9,��
2021/08/11,03:00,0.602,0.895,0.573,1.087,0.767,0.365,0.632,0.591,�k�k��,2.3,��
2021/08/11,03:10,0.602,0.895,0.575,1.089,0.768,0.365,0.631,0.590,�k��,2.0,��
2021/08/11,03:20,0.601,0.895,0.575,1.088,0.769,0.364,0.632,0.591,��,2.5,��
2021/08/11,03:30,0.603,0.895,0.574,1.087,0.770,0.364,0.632,0.591,�k��,2.5,��
2021/08/11,03:40,0.603,0.893,0.573,1.088,0.769,0.364,0.631,0.590,�k��,2.9,��
2021/08/11,03:50,0.603,0.893,0.571,1.086,0.769,0.366,0.633,0.591,�k��,3.3,��
2021/08/11,04:00,0.602,0.894,0.574,1.086,0.769,0.365,0.632,0.589,�k�k��,2.9,��
2021/08/11,04:10,0.604,0.897,0.575,1.087,0.768,0.364,0.632,0.592,�k��,2.0,��
2021/08/11,04:20,0.602,0.894,0.574,1.087,0.769,0.366,0.631,0.592,�k,0.8,��
2021/08/11,04:30,0.603,0.896,0.573,1.086,0.770,0.365,0.633,0.592,�k,1.4,��
2021/08/11,04:40,0.604,0.895,0.573,1.088,0.769,0.366,0.633,0.591,�k�k��,2.3,��
2021/08/11,04:50,0.602,0.897,0.573,1.088,0.769,0.365,0.631,0.590,�k��,4.3,��
2021/08/11,05:00,0.602,0.895,0.575,1.087,0.768,0.365,0.632,0.590,�k��,3.2,��
2021/08/11,05:10,0.601,0.895,0.572,1.087,0.769,0.363,0.632,0.591,�k��,3.5,��
2021/08/11,05:20,0.603,0.894,0.571,1.086,0.769,0.365,0.631,0.591,�k��,3.9,��
2021/08/11,05:30,0.603,0.896,0.572,1.089,0.769,0.364,0.633,0.591,���k��,5.1,��
2021/08/11,05:40,0.604,0.894,0.575,1.087,0.769,0.365,0.633,0.590,���k��,6.7,��
2021/08/11,05:50,0.602,0.897,0.573,1.088,0.768,0.366,0.631,0.592,�k��,5.8,��
2021/08/11,06:00,0.603,0.893,0.576,1.088,0.770,0.365,0.632,0.590,�k��,6.2,��
2021/08/11,06:10,0.602,0.894,0.575,1.087,0.768,0.365,0.632,0.591,�k��,5.0,��
2021/08/11,06:20,0.602,0.894,0.575,1.090,0.767,0.364,0.632,0.591,�k��,4.8,��
2021/08/11,06:30,0.600,0.896,0.572,1.088,0.766,0.366,0.632,0.590,���k��,5.8,��
2021/08/11,06:40,0.602,0.895,0.573,1.088,0.769,0.364,0.632,0.592,���k��,4.7,��
2021/08/11,06:50,0.604,0.894,0.573,1.089,0.771,0.365,0.632,0.591,���k��,3.8,��
2021/08/11,07:00,0.602,0.894,0.573,1.088,0.769,0.366,0.631,0.591,���k��,3.3,��
2021/08/11,07:10,0.604,0.894,0.573,1.087,0.769,0.366,0.633,0.593,���k��,4.1,��
2021/08/11,07:20,0.604,0.896,0.573,1.088,0.768,0.364,0.632,0.590,��,5.8,��
2021/08/11,07:30,0.604,0.893,0.575,1.089,0.765,0.365,0.633,0.592,���k��,5.0,��
2021/08/11,07:40,0.602,0.896,0.573,1.089,0.767,0.365,0.633,0.591,��,5.3,��
2021/08/11,07:50,0.602,0.894,0.573,1.087,0.767,0.364,0.634,0.590,���k��,3.8,��
2021/08/11,08:00,0.601,0.896,0.575,1.088,0.767,0.365,0.631,0.590,���k��,2.8,��
2021/08/11,08:10,0.602,0.895,0.574,1.087,0.768,0.366,0.632,0.591,�k��,2.0,��
2021/08/11,08:20,0.601,0.894,0.574,1.091,0.768,0.366,0.633,0.590,�k�k��,5.2,��
2021/08/11,08:30,0.603,0.896,0.572,1.087,0.768,0.366,0.632,0.591,�k��,5.9,��
2021/08/11,08:40,0.603,0.894,0.575,1.088,0.769,0.365,0.631,0.590,�k��,5.4,��
2021/08/11,08:50,0.603,0.896,0.573,1.087,0.769,0.365,0.631,0.589,�k��,4.8,��
2021/08/11,09:00,0.601,0.896,0.573,1.088,0.770,0.366,0.631,0.590,�k��,5.8,��
2021/08/11,09:10,0.602,0.895,0.572,1.088,0.768,0.364,0.633,0.590,�k��,4.3,��
2021/08/11,09:20,0.602,0.894,0.572,1.089,0.769,0.364,0.633,0.590,�k��,3.6,��
2021/08/11,09:30,0.600,0.895,0.572,1.090,0.770,0.363,0.633,0.589,�k��,4.3,��
2021/08/11,09:40,0.601,0.898,0.571,1.087,0.771,0.364,0.633,0.589,�k��,3.9,��
2021/08/11,09:50,0.602,0.895,0.571,1.092,0.769,0.362,0.633,0.589,�k�k��,4.2,��
2021/08/11,10:00,0.601,0.895,0.572,1.089,0.771,0.363,0.633,0.588,�k��,3.5,��
2021/08/11,10:10,0.602,0.896,0.572,1.091,0.769,0.363,0.632,0.588,�k��,4.8,��
2021/08/11,10:20,0.602,0.898,0.571,1.089,0.771,0.364,0.630,0.590,�k��,4.6,��
2021/08/11,10:30,0.603,0.895,0.572,1.089,0.770,0.363,0.630,0.591,�k�k��,4.1,��
2021/08/11,10:40,0.603,0.896,0.573,1.089,0.771,0.363,0.631,0.590,�k�k��,4.5,��
2021/08/11,10:50,0.604,0.898,0.573,1.090,0.768,0.364,0.630,0.591,�k��,4.4,��
2021/08/11,11:00,0.604,0.897,0.574,1.088,0.769,0.365,0.631,0.588,���k��,4.5,��
2021/08/11,11:10,0.602,0.897,0.574,1.089,0.770,0.365,0.632,0.591,���k��,4.1,��
2021/08/11,11:20,0.604,0.897,0.573,1.090,0.771,0.363,0.631,0.589,�k��,3.8,��
2021/08/11,11:30,0.604,0.898,0.574,1.090,0.770,0.363,0.632,0.590,�k��,4.3,��
2021/08/11,11:40,0.604,0.897,0.571,1.090,0.772,0.364,0.632,0.590,�k��,4.2,��
2021/08/11,11:50,0.604,0.898,0.574,1.087,0.770,0.365,0.631,0.589,�k��,3.4,��
2021/08/11,12:00,0.604,0.899,0.572,1.089,0.771,0.364,0.632,0.589,���k��,4.1,��
2021/08/11,12:10,0.603,0.898,0.573,1.088,0.770,0.364,0.632,0.587,�k��,3.6,��
2021/08/11,12:20,0.604,0.898,0.573,1.089,0.769,0.363,0.631,0.590,�k��,3.7,��
2021/08/11,12:30,0.600,0.900,0.572,1.090,0.773,0.363,0.631,0.590,�k��,4.0,��
2021/08/11,12:40,0.603,0.897,0.572,1.089,0.774,0.363,0.630,0.589,�k��,4.3,��
2021/08/11,12:50,0.604,0.897,0.572,1.089,0.770,0.364,0.630,0.588,�k��,4.3,��
2021/08/11,13:00,0.600,0.900,0.573,1.089,0.770,0.364,0.632,0.589,�k��,4.8,��
2021/08/11,13:10,0.603,0.898,0.572,1.090,0.770,0.364,0.630,0.589,�k��,5.8,��
2021/08/11,13:20,0.603,0.898,0.573,1.089,0.770,0.363,0.630,0.589,�k��,5.0,��
2021/08/11,13:30,0.603,0.898,0.573,1.093,0.772,0.364,0.631,0.589,�k��,4.9,��
2021/08/11,13:40,0.604,0.897,0.573,1.091,0.772,0.363,0.632,0.589,�k��,5.4,�L
2021/08/11,13:50,0.603,0.900,0.571,1.089,0.771,0.364,0.632,0.590,�k��,4.9,�L
2021/08/11,14:00,0.602,0.898,0.574,1.092,0.772,0.362,0.631,0.589,�k��,4.6,�L
2021/08/11,14:10,0.601,0.899,0.573,1.094,0.772,0.364,0.631,0.591,�k��,4.8,�L
2021/08/11,14:20,0.604,0.898,0.573,1.091,0.773,0.364,0.632,0.589,�k�k��,4.7,�L
2021/08/11,14:30,0.603,0.898,0.573,1.093,0.773,0.364,0.633,0.590,�k�k��,5.1,�L
2021/08/11,14:40,0.603,0.899,0.571,1.089,0.772,0.363,0.633,0.591,�k��,4.6,�L
2021/08/11,14:50,0.602,0.899,0.575,1.091,0.773,0.364,0.633,0.592,�k�k��,5.4,�L
2021/08/11,15:00,0.603,0.899,0.574,1.092,0.771,0.363,0.633,0.591,�k�k��,4.7,�L
2021/08/11,15:10,0.600,0.900,0.574,1.090,0.774,0.363,0.633,0.592,�k,5.3,�L
2021/08/11,15:20,0.603,0.898,0.574,1.093,0.773,0.364,0.632,0.593,�k�k��,5.2,�L
2021/08/11,15:30,0.602,0.900,0.576,1.093,0.772,0.362,0.633,0.591,�k,4.8,�L
2021/08/11,15:40,0.600,0.901,0.574,1.092,0.771,0.363,0.631,0.591,�k,5.2,�L
2021/08/11,15:50,0.601,0.898,0.575,1.091,0.774,0.364,0.632,0.591,�k,4.2,�L
2021/08/11,16:00,0.601,0.897,0.575,1.090,0.771,0.365,0.632,0.589,�k,3.9,�L
2021/08/11,16:10,0.600,0.898,0.573,1.087,0.769,0.363,0.631,0.589,�k,4.0,�L
2021/08/11,16:20,0.600,0.895,0.571,1.088,0.768,0.363,0.631,0.589,�k,4.5,�L
2021/08/11,16:30,0.599,0.896,0.573,1.090,0.767,0.363,0.630,0.590,�k,3.5,�L
2021/08/11,16:40,0.598,0.893,0.571,1.089,0.766,0.362,0.629,0.587,�k�k��,4.3,�L
2021/08/11,16:50,0.597,0.894,0.570,1.087,0.766,0.362,0.630,0.586,�k�k��,4.2,�L
2021/08/11,17:00,0.599,0.892,0.569,1.087,0.766,0.363,0.628,0.587,�k,4.2,�L
2021/08/11,17:10,0.598,0.892,0.569,1.086,0.767,0.363,0.628,0.588,�k,4.5,�L
2021/08/11,17:20,0.597,0.891,0.569,1.085,0.767,0.362,0.627,0.587,�k,4.9,�L
2021/08/11,17:30,0.595,0.889,0.568,1.083,0.763,0.362,0.627,0.585,�k,3.8,�L
2021/08/11,17:40,0.597,0.887,0.566,1.085,0.764,0.361,0.627,0.586,�k,4.1,�L
2021/08/11,17:50,0.595,0.887,0.566,1.081,0.762,0.361,0.628,0.587,�k,4.7,�L
2021/08/11,18:00,0.594,0.886,0.565,1.080,0.760,0.360,0.625,0.586,�k,5.5,�L
2021/08/11,18:10,0.592,0.883,0.566,1.079,0.760,0.360,0.625,0.587,�k,4.9,�L
2021/08/11,18:20,0.594,0.881,0.565,1.080,0.760,0.360,0.625,0.585,�k,4.6,�L
2021/08/11,18:30,0.592,0.880,0.563,1.075,0.758,0.361,0.624,0.585,�k,4.5,�L
2021/08/11,18:40,0.591,0.877,0.563,1.071,0.757,0.361,0.622,0.584,�k,4.5,�L
2021/08/11,18:50,0.589,0.875,0.561,1.069,0.756,0.360,0.623,0.584,�k�k��,4.7,�L
2021/08/11,19:00,0.591,0.875,0.562,1.066,0.757,0.359,0.621,0.582,�k,5.4,�L
2021/08/11,19:10,0.590,0.874,0.559,1.063,0.753,0.359,0.624,0.583,�k�k��,5.9,�L
2021/08/11,19:20,0.589,0.872,0.559,1.061,0.752,0.358,0.624,0.582,�k,5.0,�L
2021/08/11,19:30,0.588,0.870,0.558,1.058,0.751,0.360,0.622,0.583,�k,4.7,�L
2021/08/11,19:40,0.587,0.870,0.561,1.057,0.751,0.358,0.621,0.583,�k,4.7,�L
2021/08/11,19:50,0.587,0.870,0.560,1.058,0.753,0.359,0.622,0.582,�k,5.4,�L
2021/08/11,20:00,0.585,0.868,0.558,1.057,0.751,0.360,0.622,0.583,�k�k��,5.9,�L
2021/08/11,20:10,0.584,0.867,0.558,1.055,0.750,0.358,0.621,0.583,�k,4.7,�L
2021/08/11,20:20,0.585,0.870,0.559,1.055,0.750,0.358,0.621,0.581,�k,4.8,�L
2021/08/11,20:30,0.585,0.868,0.557,1.052,0.750,0.359,0.620,0.583,�k,4.5,�L
2021/08/11,20:40,0.585,0.867,0.556,1.053,0.749,0.357,0.620,0.581,�k,4.6,�L
2021/08/11,20:50,0.585,0.864,0.555,1.051,0.747,0.356,0.620,0.579,�k,5.4,�L
2021/08/11,21:00,0.585,0.865,0.553,1.046,0.746,0.358,0.620,0.581,�k,5.7,�L
2021/08/11,21:10,0.583,0.863,0.553,1.045,0.746,0.357,0.617,0.580,�k,4.7,�L
2021/08/11,21:20,0.583,0.863,0.556,1.047,0.747,0.356,0.618,0.581,�k,4.7,�L
2021/08/11,21:30,0.582,0.861,0.556,1.044,0.745,0.357,0.617,0.579,�k�k��,5.4,�L
2021/08/11,21:40,0.581,0.861,0.555,1.046,0.743,0.357,0.619,0.580,�k�k��,5.1,�L
2021/08/11,21:50,0.580,0.860,0.553,1.043,0.744,0.357,0.618,0.579,�k�k��,4.5,�L
2021/08/11,22:00,0.580,0.859,0.555,1.044,0.742,0.356,0.618,0.581,�k�k��,4.3,�L
2021/08/11,22:10,0.580,0.860,0.554,1.044,0.744,0.356,0.619,0.579,�k�k��,4.9,�L
2021/08/11,22:20,0.580,0.857,0.552,1.042,0.743,0.356,0.618,0.579,�k�k��,5.3,�L
2021/08/11,22:30,0.581,0.856,0.552,1.042,0.741,0.356,0.617,0.579,�k�k��,5.6,�L
2021/08/11,22:40,0.578,0.857,0.553,1.041,0.744,0.355,0.617,0.580,�k�k��,5.1,�L
2021/08/11,22:50,0.579,0.855,0.552,1.042,0.741,0.356,0.616,0.580,�k�k��,5.3,�L
2021/08/11,23:00,0.578,0.855,0.551,1.040,0.740,0.357,0.615,0.579,�k�k��,5.9,�L
2021/08/11,23:10,0.577,0.854,0.551,1.038,0.740,0.355,0.617,0.577,�k�k��,4.6,�L
2021/08/11,23:20,0.578,0.852,0.550,1.038,0.738,0.355,0.616,0.578,�k,4.7,�L
2021/08/11,23:30,0.576,0.853,0.551,1.036,0.738,0.353,0.615,0.576,�k�k��,7.0,�L
2021/08/11,23:40,0.579,0.852,0.550,1.036,0.737,0.354,0.614,0.577,�k,5.7,�L
2021/08/11,23:50,0.576,0.852,0.549,1.034,0.737,0.355,0.615,0.579,�k�k��,6.2,�L
